sat.trackr.live / text

‹ back to catalog

ONEWEB-0284

NORAD 49002 · 2021-060AM

PAYLOAD ACTIVE UNKNOWN

§ Identity

Operator
Country
UK
Launch date
2021-07-01
Launch site
VOSTO
Launch vehicle
Mass (kg)
RCS (m²)

Purposes: comms

External: N2YO · Heavens-Above · Gunter

§ Orbital elements

Epoch: 2026-09-20T03:37:44.570784Z

Period
109.37 min
Inclination
87.9136°
Eccentricity
0.0001537
Mean motion
13.16594720 rev/d
Perigee alt
1,196.6 km
Apogee alt
1,198.9 km
Semi-major
7,575.9 km
B*
-1.4866e-4
RAAN
209.9199°
Arg perigee
77.5236°
Mean anomaly
282.6067°
Rev number
25,209

§ Raw data

ONEWEB-02841 49002U 21060AM  26263.15121031 -.00000044  00000+0 -14866-3 0  99942 49002  87.9136 209.9199 0001537  77.5236 282.6067 13.16594720252093

JSON: /api/v1/satellites/49002 · /tle

For live sub-satellite position, see the globe view (requires WebGL).

§ Visibility from observer

Set your observer location to see the next 7 days of passes ≥ 10°. The values pass through the URL so the page stays shareable.

No JS? Fill the form by hand. The geolocation button needs JavaScript.